Location: Bannatyne
(13.0833°N, 59.5333°W)
Time: 15:19:02
(UTC+00:00)

deb Explorer IX - Pass Details

Date: 24 January 2020
Orbit: 549 x 1099 km, 38.8° (Epoch: 23 February)

Event Time Altitude Azimuth Distance (km) Brightness Sun altitude
Rises 10:13:31 0° 295° (WNW) 3,551 - -3.5°
Exits shadow 10:14:39 - 292° (WNW) 3,154 ? -3.2°
Reaches altitude 10° 10:16:32 10° 285° (WNW) 2,510 ? -2.8°
Maximum altitude 10:21:41 31° 225° (SW) 1,343 ? -1.6°
Drops below altitude 10° 10:26:11 10° 163° (SSE) 2,174 ? -0.6°
Sets 10:28:39 0° 152° (SSE) 3,006 ? 0.0°
